Retour au catalogue

COSMOS 2251 DEB

ActifVLEO
NORAD 34301·DEBRIS·🇷🇺 Russia

Lancé Jun 16, 1993 depuis Plesetsk Cosmodrome

Loading…

Prochains Passages (prochaines 24 heures)

TLE

FraisSource: Space-Track

Époque: Sep 14, 2026, 04:31 UTC

1 34301U 93036MX  26257.18859895  .00020117  00000-0  16249-2 0  9992
2 34301  74.0021 332.2225 0013211 331.5629  56.9932 14.99714879925103

Suivez COSMOS 2251 DEB en temps réel avec AllMySat

Download on the App Store